FW2143 Weather Reports


Display with metric or nautical units.
time (UTC)temp
F
wind
direction
speed
MPH
gust
MPH
rain 1hr
in
rain 24hr
in
rain mn
in
humidity
%
barometer
mb
20210729065152 75 267 0.0 0.0 0.00 0.00 0.00 43 1012.1
20210729064650 75 267 0.0 0.0 0.00 0.00 0.00 43 1012.3
20210729064152 75 267 0.0 0.0 0.00 0.00 0.00 40 1012.3
20210729063652 76 267 0.0 0.0 0.00 0.00 0.00 40 1012.4
20210729063150 76 267 0.0 0.0 0.00 0.00 0.00 43 1012.3
20210729062643 77 267 0.0 0.0 0.00 0.00 0.00 42 1012.4
20210729062112 77 266 0.0 1.0 0.00 0.00 0.00 42 1012.4
20210729061555 77 285 0.0 1.0 0.00 0.00 0.00 42 1012.3
20210729061033 77 262 0.0 1.0 0.00 0.00 0.00 41 1012.4
20210729060533 77 276 0.0 1.0 0.00 0.00 0.00 42 1012.5
20210729060032 77 277 0.0 1.0 0.00 0.00 0.00 41 1012.5
20210729055535 77 276 0.0 0.0 0.00 0.00 0.00 42 1012.5
20210729055032 78 276 0.0 0.0 0.00 0.00 0.00 43 1012.6
20210729054532 78 276 0.0 1.0 0.00 0.00 0.00 43 1012.7
20210729054018 77 287 0.0 1.0 0.00 0.00 0.00 43 1012.7
20210729053515 77 272 0.0 0.0 0.00 0.00 0.00 44 1012.8
20210729052952 77 298 0.0 0.0 0.00 0.00 0.00 44 1012.8
20210729052452 77 298 0.0 0.0 0.00 0.00 0.00 44 1012.9
20210729051953 77 298 0.0 0.0 0.00 0.00 0.00 42 1012.9
20210729051452 77 298 0.0 0.0 0.00 0.00 0.00 42 1012.8
20210729050935 78 298 0.0 0.0 0.00 0.00 0.00 42 1012.8
20210729050416 78 298 0.0 0.0 0.00 0.00 0.00 41 1012.9
20210729045857 79 298 0.0 0.0 0.00 0.00 0.00 41 1012.9
20210729045353 79 298 0.0 0.0 0.00 0.00 0.00 40 1013.1
20210729044853 80 282 0.0 0.0 0.00 0.00 0.00 40 1013.2
20210729044352 80 282 0.0 1.0 0.00 0.00 0.00 40 1013.1
20210729043852 80 282 0.0 1.0 0.00 0.00 0.00 39 1013.0
20210729043349 80 282 0.0 1.0 0.00 0.00 0.00 39 1012.9
20210729042852 81 266 0.0 0.0 0.00 0.00 0.00 39 1013.0
20210729042352 81 266 0.0 0.0 0.00 0.00 0.00 39 1013.1
20210729041849 81 266 0.0 1.0 0.00 0.00 0.00 39 1013.0
20210729041352 81 269 0.0 1.0 0.00 0.00 0.00 38 1013.1
20210729040852 81 269 0.0 1.0 0.00 0.00 0.00 38 1013.1
20210729040349 82 269 0.0 1.0 0.00 0.00 0.00 38 1013.1
20210729035852 82 269 0.0 1.0 0.00 0.00 0.00 38 1013.1
20210729035352 82 269 0.0 1.0 0.00 0.00 0.00 37 1012.9
20210729034849 82 274 0.0 1.0 0.00 0.00 0.00 37 1012.9
20210729034352 82 345 0.0 1.0 0.00 0.00 0.00 37 1013.0
20210729033839 82 75 0.0 1.0 0.00 0.00 0.00 38 1013.0
20210729033333 82 75 0.0 0.0 0.00 0.00 0.00 38 1013.0
20210729032816 82 88 0.0 0.0 0.00 0.00 0.00 38 1012.9
20210729032251 82 88 0.0 0.0 0.00 0.00 0.00 39 1012.9
20210729031751 82 88 0.0 0.0 0.00 0.00 0.00 38 1012.9
20210729031252 82 88 0.0 0.0 0.00 0.00 0.00 39 1012.8
20210729030752 82 88 0.0 0.0 0.00 0.00 0.00 39 1012.8
20210729030252 82 88 0.0 0.0 0.00 0.00 0.00 39 1012.8
20210729025753 82 88 0.0 0.0 0.00 0.00 0.00 38 1012.8
20210729025254 82 88 0.0 0.0 0.00 0.00 0.00 38 1012.8
20210729024749 83 88 0.0 0.0 0.00 0.00 0.00 37 1012.8
20210729024252 83 88 0.0 0.0 0.00 0.00 0.00 37 1012.9
20210729023752 83 87 0.0 0.0 0.00 0.00 0.00 36 1012.9
20210729023250 83 87 0.0 0.0 0.00 0.00 0.00 36 1012.8
20210729022753 83 86 0.0 0.0 0.00 0.00 0.00 35 1012.8
20210729022238 84 86 0.0 0.0 0.00 0.00 0.00 35 1012.9
20210729021655 84 86 0.0 0.0 0.00 0.00 0.00 35 1012.9
20210729021152 84 86 0.0 0.0 0.00 0.00 0.00 34 1012.8
20210729020649 85 86 0.0 0.0 0.00 0.00 0.00 34 1013.1
20210729020149 85 86 0.0 0.0 0.00 0.00 0.00 34 1013.1
20210729015652 85 86 0.0 0.0 0.00 0.00 0.00 33 1013.1
20210729015153 86 86 0.0 1.0 0.00 0.00 0.00 33 1013.1
20210729014650 86 86 0.0 1.0 0.00 0.00 0.00 33 1013.2
20210729014151 87 41 0.0 1.0 0.00 0.00 0.00 32 1013.2
20210729013651 87 86 0.0 1.0 0.00 0.00 0.00 33 1013.2
20210729013149 87 84 0.0 1.0 0.00 0.00 0.00 32 1013.3
20210729012652 88 65 0.0 3.0 0.00 0.00 0.00 32 1013.4
20210729012149 89 35 0.0 3.0 0.00 0.00 0.00 31 1013.4
20210729011652 90 102 0.0 3.0 0.00 0.00 0.00 31 1013.7
20210729011146 90 27 0.0 3.0 0.00 0.00 0.00 30 1013.8
20210729010649 90 65 0.0 3.0 0.00 0.00 0.00 29 1013.8
20210729010149 91 115 0.0 3.0 0.00 0.00 0.00 28 1013.9
20210729005653 92 39 0.0 3.0 0.00 0.00 0.00 28 1014.0
20210729005152 93 4 0.0 1.0 0.00 0.00 0.00 28 1014.1
20210729004651 93 27 0.0 2.0 0.00 0.00 0.00 27 1014.2
20210729004147 92 287 0.0 3.0 0.00 0.00 0.00 28 1014.1
20210729003649 92 51 0.0 3.0 0.00 0.00 0.00 27 1014.1
20210729003151 92 23 0.0 2.0 0.00 0.00 0.00 27 1014.3
20210729002650 92 354 0.0 4.0 0.00 0.00 0.00 28 1014.3
20210729002151 92 127 0.0 4.0 0.00 0.00 0.00 27 1014.2
20210729001649 93 40 0.0 3.0 0.00 0.00 0.00 27 1014.3
20210729001152 93 65 0.0 3.0 0.00 0.00 0.00 27 1014.5
20210729000649 93 131 0.0 3.0 0.00 0.00 0.00 27 1014.5
20210729000150 92 38 0.0 3.0 0.00 0.00 0.00 27 1014.3
20210728235646 94 60 1.0 5.0 0.00 0.00 0.00 27 1014.6
20210728235149 93 30 1.0 5.0 0.00 0.00 0.00 28 1014.6
20210728234649 93 63 1.0 4.0 0.00 0.00 0.00 28 1014.5
20210728234151 93 108 1.0 4.0 0.00 0.00 0.00 28 1014.7
20210728233649 93 25 0.0 4.0 0.00 0.00 0.00 27 1014.6
20210728233149 93 134 1.0 4.0 0.00 0.00 0.00 27 1014.6
20210728232652 93 43 1.0 4.0 0.00 0.00 0.00 28 1014.6
20210728232149 93 57 0.0 4.0 0.00 0.00 0.00 28 1014.6
20210728231650 93 31 1.0 4.0 0.00 0.00 0.00 27 1014.7
20210728231149 94 48 1.0 4.0 0.00 0.00 0.00 26 1014.8
20210728230647 94 99 1.0 4.0 0.00 0.00 0.00 27 1014.8
20210728230147 94 356 0.0 3.0 0.00 0.00 0.00 26 1014.9
20210728225651 94 88 0.0 3.0 0.00 0.00 0.00 27 1015.0
20210728225141 93 21 1.0 4.0 0.00 0.00 0.00 28 1014.9
20210728224619 92 51 1.0 4.0 0.00 0.00 0.00 28 1014.9
20210728224113 93 61 1.0 6.0 0.00 0.00 0.00 28 1014.8
20210728223611 93 89 1.0 6.0 0.00 0.00 0.00 29 1014.9
20210728223116 94 353 1.0 5.0 0.00 0.00 0.00 28 1015.0
20210728222610 94 356 1.0 5.0 0.00 0.00 0.00 28 1015.2
20210728222112 93 36 1.0 5.0 0.00 0.00 0.00 28 1015.5
20210728221607 94 99 1.0 4.0 0.00 0.00 0.00 29 1015.5
20210728221110 93 40 1.0 4.0 0.00 0.00 0.00 29 1015.4
20210728220609 93 41 1.0 8.0 0.00 0.00 0.00 29 1015.5
20210728220113 93 48 1.0 8.0 0.00 0.00 0.00 29 1015.5
20210728215607 93 56 1.0 5.0 0.00 0.00 0.00 29 1015.6
20210728215102 93 71 1.0 5.0 0.00 0.00 0.00 29 1015.7
20210728214603 93 89 1.0 7.0 0.00 0.00 0.00 29 1015.7
20210728214103 94 116 1.0 7.0 0.00 0.00 0.00 28 1015.8
20210728213606 94 337 1.0 5.0 0.00 0.00 0.00 29 1015.9
20210728213108 93 115 1.0 5.0 0.00 0.00 0.00 29 1015.9
20210728212556 93 56 1.0 5.0 0.00 0.00 0.00 30 1016.0
20210728212057 93 80 2.0 5.0 0.00 0.00 0.00 29 1015.9
20210728211552 93 36 1.0 6.0 0.00 0.00 0.00 28 1015.9
20210728211049 94 52 1.0 6.0 0.00 0.00 0.00 27 1016.1
20210728210541 94 336 1.0 6.0 0.00 0.00 0.00 29 1016.1
20210728210040 93 26 1.0 5.0 0.00 0.00 0.00 30 1016.2
20210728205542 93 342 1.0 9.0 0.00 0.00 0.00 30 1016.0
20210728205033 93 136 1.0 9.0 0.00 0.00 0.00 31 1016.1
20210728204536 93 36 1.0 5.0 0.00 0.00 0.00 31 1016.2
20210728204021 93 153 2.0 6.0 0.00 0.00 0.00 32 1016.2
20210728203526 92 15 1.0 6.0 0.00 0.00 0.00 33 1016.1
20210728203023 92 128 1.0 4.0 0.00 0.00 0.00 35 1016.2
20210728202524 91 32 1.0 6.0 0.00 0.00 0.00 35 1016.1
20210728202024 92 30 1.0 7.0 0.00 0.00 0.00 33 1016.1
20210728201522 91 20 2.0 7.0 0.00 0.00 0.00 35 1016.1
20210728201022 91 35 2.0 7.0 0.00 0.00 0.00 33 1016.2
20210728200517 92 43 2.0 7.0 0.00 0.00 0.00 33 1016.3
20210728200018 92 131 2.0 6.0 0.00 0.00 0.00 33 1016.2
20210728195518 93 41 1.0 6.0 0.00 0.00 0.00 33 1016.4
20210728195016 93 131 1.0 5.0 0.00 0.00 0.00 33 1016.5
20210728194519 93 41 1.0 5.0 0.00 0.00 0.00 34 1016.5
20210728194019 92 356 1.0 7.0 0.00 0.00 0.00 34 1016.4
20210728193514 92 115 1.0 7.0 0.00 0.00 0.00 34 1016.3
20210728193008 92 13 1.0 5.0 0.00 0.00 0.00 32 1016.3
20210728192459 92 73 2.0 7.0 0.00 0.00 0.00 32 1016.4
20210728191950 92 350 1.0 7.0 0.00 0.00 0.00 33 1016.4
20210728191451 93 344 1.0 5.0 0.00 0.00 0.00 31 1016.6
20210728190941 93 37 1.0 5.0 0.00 0.00 0.00 32 1016.4
20210728190442 93 96 1.0 5.0 0.00 0.00 0.00 31 1016.6
20210728185940 92 51 1.0 6.0 0.00 0.00 0.00 30 1016.4
20210728185438 92 346 1.0 6.0 0.00 0.00 0.00 31 1016.6
20210728184937 92 15 1.0 6.0 0.00 0.00 0.00 30 1016.6
20210728184436 92 331 1.0 6.0 0.00 0.00 0.00 30 1016.5
20210728183934 92 51 1.0 4.0 0.00 0.00 0.00 29 1016.4
20210728183433 92 6 1.0 5.0 0.00 0.00 0.00 30 1016.6
20210728182936 92 47 0.0 5.0 0.00 0.00 0.00 28 1016.5
20210728182410 92 107 0.0 3.0 0.00 0.00 0.00 28 1016.7
20210728181910 92 262 0.0 3.0 0.00 0.00 0.00 28 1016.5
20210728181403 92 44 1.0 3.0 0.00 0.00 0.00 28 1016.5
20210728180902 91 281 1.0 3.0 0.00 0.00 0.00 30 1016.4
20210728180351 91 22 1.0 5.0 0.00 0.00 0.00 28 1016.3
20210728175840 91 342 1.0 5.0 0.00 0.00 0.00 27 1016.4
20210728175337 91 37 0.0 3.0 0.00 0.00 0.00 28 1016.4
20210728174839 91 120 0.0 3.0 0.00 0.00 0.00 27 1016.3
20210728174332 90 255 0.0 4.0 0.00 0.00 0.00 30 1016.3
20210728173827 90 354 0.0 5.0 0.00 0.00 0.00 27 1016.2
20210728173327 90 275 0.0 5.0 0.00 0.00 0.00 28 1016.2
20210728172826 89 217 0.0 2.0 0.00 0.00 0.00 30 1016.0
20210728172253 88 281 0.0 5.0 0.00 0.00 0.00 31 1015.9
20210728171750 87 19 0.0 5.0 0.00 0.00 0.00 31 1015.9
20210728171253 87 307 0.0 3.0 0.00 0.00 0.00 30 1015.9
20210728170750 88 280 0.0 3.0 0.00 0.00 0.00 30 1016.1
20210728170250 87 353 0.0 3.0 0.00 0.00 0.00 29 1016.0
20210728165741 87 70 0.0 2.0 0.00 0.00 0.00 29 1016.1
20210728165237 87 52 0.0 2.0 0.00 0.00 0.00 29 1016.0
20210728164737 87 281 0.0 2.0 0.00 0.00 0.00 29 1016.1
20210728164232 87 7 0.0 2.0 0.00 0.00 0.00 28 1016.1
20210728163724 87 330 0.0 2.0 0.00 0.00 0.00 28 1016.1
20210728163155 87 46 0.0 3.0 0.00 0.00 0.00 28 1016.3
20210728162651 87 30 0.0 3.0 0.00 0.00 0.00 26 1016.4
20210728162153 87 42 0.0 2.0 0.00 0.00 0.00 26 1016.4
20210728161647 87 78 0.0 2.0 0.00 0.00 0.00 25 1016.0
20210728161149 87 323 0.0 1.0 0.00 0.00 0.00 24 1016.1
20210728160648 87 131 0.0 1.0 0.00 0.00 0.00 24 1016.1
20210728160149 87 103 0.0 0.0 0.00 0.00 0.00 25 1016.1
20210728155646 87 137 0.0 1.0 0.00 0.00 0.00 25 1016.0
20210728155110 86 112 0.0 1.0 0.00 0.00 0.00 25 1015.8
20210728154558 85 14 0.0 1.0 0.00 0.00 0.00 27 1015.7
20210728154052 84 14 0.0 1.0 0.00 0.00 0.00 28 1015.6
20210728153551 84 13 0.0 1.0 0.00 0.00 0.00 29 1015.5
20210728153054 85 58 0.0 0.0 0.00 0.00 0.00 28 1015.6
20210728152525 84 58 0.0 0.0 0.00 0.00 0.00 28 1015.6
20210728152019 84 58 0.0 0.0 0.00 0.00 0.00 27 1015.5
20210728151455 83 58 0.0 1.0 0.00 0.00 0.00 28 1015.6
20210728150952 83 58 0.0 1.0 0.00 0.00 0.00 28 1015.4
20210728150449 82 58 0.0 0.0 0.00 0.00 0.00 26 1015.4
20210728145951 82 58 0.0 1.0 0.00 0.00 0.00 27 1015.3
20210728145448 81 58 0.0 1.0 0.00 0.00 0.00 23 1015.0
20210728144948 81 66 0.0 0.0 0.00 0.00 0.00 24 1014.9
20210728144441 80 66 0.0 0.0 0.00 0.00 0.00 26 1014.9
20210728143937 80 66 0.0 0.0 0.00 0.00 0.00 30 1014.9
20210728143431 78 66 0.0 0.0 0.00 0.00 0.00 34 1014.6
20210728142932 77 66 0.0 0.0 0.00 0.00 0.00 34 1014.5
20210728142427 75 66 0.0 0.0 0.00 0.00 0.00 38 1014.3
20210728141932 73 66 0.0 0.0 0.00 0.00 0.00 39 1013.8
20210728141414 72 66 0.0 0.0 0.00 0.00 0.00 43 1013.8
20210728140853 71 66 0.0 0.0 0.00 0.00 0.00 40 1013.8
20210728140351 71 66 0.0 0.0 0.00 0.00 0.00 38 1013.7
20210728135822 70 66 0.0 0.0 0.00 0.00 0.00 39 1013.6
20210728135251 70 66 0.0 0.0 0.00 0.00 0.00 40 1013.6
20210728134752 70 66 0.0 0.0 0.00 0.00 0.00 42 1013.6
20210728134249 70 66 0.0 0.0 0.00 0.00 0.00 39 1013.6
20210728133751 70 66 0.0 0.0 0.00 0.00 0.00 40 1013.3
20210728133248 70 66 0.0 0.0 0.00 0.00 0.00 40 1013.3
20210728132752 70 66 0.0 0.0 0.00 0.00 0.00 40 1013.2
20210728132243 69 66 0.0 0.0 0.00 0.00 0.00 40 1013.1
20210728131732 69 66 0.0 0.0 0.00 0.00 0.00 39 1013.0
20210728131152 69 66 0.0 0.0 0.00 0.00 0.00 38 1013.1
20210728130608 69 66 0.0 0.0 0.00 0.00 0.00 38 1013.1
20210728130110 70 66 0.0 0.0 0.00 0.00 0.00 39 1013.1
20210728125606 70 66 0.0 0.0 0.00 0.00 0.00 38 1013.1
20210728125058 70 66 0.0 0.0 0.00 0.00 0.00 38 1013.0
20210728124552 70 66 0.0 0.0 0.00 0.00 0.00 40 1013.1
20210728124051 70 66 0.0 0.0 0.00 0.00 0.00 39 1013.0
20210728123551 70 66 0.0 0.0 0.00 0.00 0.00 40 1013.0
20210728123023 70 66 0.0 0.0 0.00 0.00 0.00 39 1012.9
20210728122516 70 66 0.0 0.0 0.00 0.00 0.00 39 1012.9
20210728121948 70 66 0.0 0.0 0.00 0.00 0.00 38 1012.9
20210728121453 70 66 0.0 0.0 0.00 0.00 0.00 38 1012.9
20210728120951 70 66 0.0 0.0 0.00 0.00 0.00 37 1012.7
20210728120449 70 66 0.0 0.0 0.00 0.00 0.00 37 1012.8
20210728115953 70 66 0.0 0.0 0.00 0.00 0.00 38 1012.7
20210728115453 70 66 0.0 0.0 0.00 0.00 0.00 40 1012.8
20210728114953 70 66 0.0 0.0 0.00 0.00 0.00 37 1012.7
20210728114449 70 66 0.0 0.0 0.00 0.00 0.00 38 1012.6
20210728113952 70 66 0.0 0.0 0.00 0.00 0.00 38 1012.6
20210728113450 70 66 0.0 0.0 0.00 0.00 0.00 37 1012.7
20210728112954 70 66 0.0 0.0 0.00 0.00 0.00 36 1012.6
20210728112449 70 66 0.0 0.0 0.00 0.00 0.00 37 1012.7
20210728111954 70 66 0.0 0.0 0.00 0.00 0.00 37 1012.5
20210728111436 71 66 0.0 0.0 0.00 0.00 0.00 38 1012.7
20210728110936 71 66 0.0 0.0 0.00 0.00 0.00 39 1012.7
20210728110352 71 66 0.0 0.0 0.00 0.00 0.00 39 1012.7
20210728105851 71 66 0.0 0.0 0.00 0.00 0.00 39 1012.7
20210728105351 71 66 0.0 0.0 0.00 0.00 0.00 38 1012.8
20210728104849 71 66 0.0 0.0 0.00 0.00 0.00 36 1012.9
20210728104352 71 66 0.0 0.0 0.00 0.00 0.00 36 1012.8
20210728103851 71 66 0.0 0.0 0.00 0.00 0.00 36 1012.8
20210728103348 71 66 0.0 0.0 0.00 0.00 0.00 35 1012.9
20210728102849 72 66 0.0 0.0 0.00 0.00 0.00 34 1012.9
20210728102349 72 66 0.0 0.0 0.00 0.00 0.00 34 1012.9
20210728101852 72 66 0.0 0.0 0.00 0.00 0.00 34 1012.9
20210728101337 72 66 0.0 0.0 0.00 0.00 0.00 33 1012.9
20210728100840 72 66 0.0 0.0 0.00 0.00 0.00 32 1012.8
20210728100336 72 66 0.0 0.0 0.00 0.00 0.00 31 1012.9
20210728095809 72 66 0.0 0.0 0.00 0.00 0.00 29 1012.9
20210728095307 72 66 0.0 0.0 0.00 0.00 0.00 29 1012.9
20210728094801 71 66 0.0 0.0 0.00 0.00 0.00 29 1012.8
20210728094252 71 66 0.0 0.0 0.00 0.00 0.00 30 1012.8
20210728093751 71 66 0.0 0.0 0.00 0.00 0.00 31 1013.0
20210728093249 71 66 0.0 0.0 0.00 0.00 0.00 33 1013.0
20210728092734 71 66 0.0 0.0 0.00 0.00 0.00 36 1013.0
20210728092238 72 66 0.0 0.0 0.00 0.00 0.00 36 1013.0
20210728091737 71 66 0.0 0.0 0.00 0.00 0.00 35 1012.9
20210728091224 71 66 0.0 0.0 0.00 0.00 0.00 35 1012.9
20210728090711 71 66 0.0 0.0 0.00 0.00 0.00 37 1012.9
20210728090156 71 66 0.0 0.0 0.00 0.00 0.00 37 1012.9
20210728085653 71 66 0.0 0.0 0.00 0.00 0.00 36 1012.9
20210728085151 71 66 0.0 0.0 0.00 0.00 0.00 36 1012.9
20210728084649 71 66 0.0 0.0 0.00 0.00 0.00 38 1013.1
20210728084148 72 66 0.0 0.0 0.00 0.00 0.00 38 1013.1
20210728083648 72 66 0.0 0.0 0.00 0.00 0.00 37 1013.1
20210728083148 71 66 0.0 0.0 0.00 0.00 0.00 34 1013.2
20210728082651 72 66 0.0 0.0 0.00 0.00 0.00 33 1013.3
20210728082151 72 66 0.0 0.0 0.00 0.00 0.00 33 1013.3
20210728081648 72 66 0.0 0.0 0.00 0.00 0.00 36 1013.4
20210728081154 72 66 0.0 0.0 0.00 0.00 0.00 37 1013.3
20210728080652 73 66 0.0 0.0 0.00 0.00 0.00 38 1013.3
20210728080149 73 66 0.0 0.0 0.00 0.00 0.00 37 1013.2
20210728075649 73 66 0.0 0.0 0.00 0.00 0.00 36 1013.2
20210728075148 73 66 0.0 0.0 0.00 0.00 0.00 34 1013.2
20210728074648 73 66 0.0 0.0 0.00 0.00 0.00 38 1013.2
20210728074150 73 66 0.0 0.0 0.00 0.00 0.00 37 1013.3
20210728073653 73 66 0.0 0.0 0.00 0.00 0.00 34 1013.3
20210728073149 72 66 0.0 0.0 0.00 0.00 0.00 30 1013.3
20210728072651 72 66 0.0 0.0 0.00 0.00 0.00 30 1013.3
20210728072150 72 66 0.0 0.0 0.00 0.00 0.00 31 1013.4
20210728071648 72 66 0.0 0.0 0.00 0.00 0.00 34 1013.4
20210728071151 72 66 0.0 0.0 0.00 0.00 0.00 37 1013.4
20210728070651 72 66 0.0 0.0 0.00 0.00 0.00 36 1013.4
20210728070147 72 66 0.0 0.0 0.00 0.00 0.00 35 1013.4
20210728065621 72 66 0.0 0.0 0.00 0.00 0.00 34 1013.4